Reflectivity
-20 -20 -20 -20 -20 -20 -20 -20 -2 -8 -20 -20 1 20 15 7 3 -5 -20 -20 -20 -20 -20 -20 -20 -20 -20 -20 -20 -20 -19 -6 6 -8 10 5 9 -4 12 -10 -0 11 21 19
-20 -20 1 5 -20 -20 -20 -20 -20 -20 -11 -1 5 11 7 -2 -20 -16 -20 -20 -20 -20 -20 -20 -20 -20 -20 -20 -20 -20 -20 11 10 -18 -20 -9 -9 6 2 -3 1 14 19 12
-7 -20 -5 14 -20 -19 1 -14 2 8 -19 -20 -20 -20 -20 -20 -20 -20 -20 -20 -20 -20 -20 -20 -20 -20 -20 -20 -5 -20 -20 -20 -5 -20 -14 -17 -10 -20 -18 -11 -18 -20 -20 -20
-20 -20 1 -20 -20 -20 -20 0 2 -12 -18 -20 -20 -20 -20 -20 -20 -20 -20 -20 -20 -20 -20 -20 -20 -20 -20 -20 -20 -20 -20 -20 -19 -20 -13 -14 -19 -20 -20 -20 -20 -20 -20 -19
10 -19 -20 -20 -20 -20 -20 -20 -20 -20 -20 -20 -20 -20 -20 -16 -20 -20 -20 -20 -20 -20 -20 -20 -20 -20 -20 -20 -20 -20 -20 14 -3 -20 -20 -20 -20 -20 10 13 -20 -20 -20 -8
6 16 12 -20 -20 -20 -20 -20 -20 -20 -20 -20 -20 -20 -20 -20 -20 -20 -20 -20 -20 -20 -20 -20 -20 -20 -20 -20 -20 -20 -20 -9 4 -20 -20 -20 -20 -20 14 -17 7 -20 -20 9
-20 -7 -20 -20 -20 -20 -20 -20 -20 -20 -20 -20 -20 -20 -20 -20 -20 -20 -20 -20 -20 -20 -20 -20 -20 -20 -20 -20 -20 -20 -20 -20 -20 -20 -17 -20 -20 -20 8 -20 21 -19 -20 -8
-20 -20 -20 -20 -20 -20 -20 -20 -20 -20 -20 -20 -20 -20 -20 -20 -20 -20 -20 -20 -20 -20 -20 -20 -20 -20 -20 -20 -20 -3 -20 -5 -20 -20 -20 -20 -20 -20 -20 -16 12 24 20 7
-20 -20 -20 -20 -20 -20 -20 -20 -20 -20 -20 -20 -20 -20 -20 -20 -20 -20 -20 -20 -20 -20 -20 -20 -20 -11 -20 -20 -20 -20 -20 -20 -12 -20 -20 -20 -20 -13 1 3 6 6 14 13
-20 -20 -20 -20 -20 -20 -20 -20 -20 -20 -20 -20 -20 -20 -20 -20 -20 -20 -20 -20 -20 -20 -20 -20 -20 -20 -20 -10 -16 -18 -20 -20 -20 -20 -16 -20 -13 -2 7 17 11 -6 20 32
-20 -20 -20 -20 -20 -20 -20 -20 -20 -20 -20 -20 -20 -20 -20 -20 -20 -20 -20 -20 -20 -20 -13 -5 2 -5 12 -6 -20 -20 -20 -20 -20 -20 -15 -20 -3 2 -2 11 24 27 23 -6
-20 -20 -20 -20 -20 -20 -20 -20 -4 9 -16 -20 -20 -20 -20 -20 -20 -20 -20 -20 -20 0 2 -20 -1 26 -13 -20 -20 -20 -20 -20 -15 -20 -20 -1 9 16 22 20 21 19 11 2
-20 -13 11 16 12 -20 -18 -0 -20 -13 1 7 -9 -9 -20 -20 -20 -20 -20 -20 -20 -20 7 31 5 10 -20 -20 -20 -20 -20 -20 -20 -20 -7 -1 18 14 12 19 16 13 4 -20
4 33 6 -20 -5 -19 -20 -20 -20 -20 -20 -11 -1 10 -14 -20 -20 -20 -20 -20 -20 -20 -20 -3 -20 -16 -20 -20 -20 -20 -13 -7 -20 -13 -9 2 7 -2 9 8 2 14 15 7
5 -17 -20 -20 -15 -20 -20 -20 -7 -20 -20 -20 -9 6 16 7 -11 -20 -20 -20 -20 -20 -20 -20 -18 -15 -20 -20 -20 -14 -11 -20 -20 -20 -20 6 -0 9 13 8 -8 -14 -13 -11
-19 -20 -14 -20 -20 -5 -17 -20 -4 -20 -20 -7 5 18 12 -5 -8 -20 -20 -20 -20 -20 -20 -20 -8 -20 -20 -20 -20 -20 -20 -20 -20 -20 -19 10 2 -2 -17 -20 -20 -20 -20 -20
-20 -20 -20 -20 -5 -20 -2 5 2 -16 -7 -4 20 23 12 -6 20 3 -20 8 3 -5 -19 -9 7 -18 -20 -20 -20 -20 -20 -20 -20 -20 -18 11 -15 -20 -20 -20 -20 -20 -20 -20
-20 -20 -17 -1 5 -19 -20 -19 -20 -19 -4 12 18 19 -13 -8 -6 13 -20 -10 -6 5 -11 5 13 8 -7 -20 -20 -19 -20 -20 -20 -20 -12 -19 -20 -20 -20 -20 -20 -20 -20 -20
-20 -20 -20 -20 -20 -20 -18 -6 -10 -2 -15 -18 -12 -11 -11 29 8 11 -20 -20 -20 -20 -20 -20 0 5 8 -12 -9 -20 -20 -20 -20 -19 -20 -20 -20 -20 -20 -20 -20 -20 -20 -20
-20 -20 -20 -20 -20 -20 -20 -20 -19 -20 3 -19 -17 -17 -20 -6 -20 -20 -20 -20 -20 -20 -20 -17 -13 -15 -14 -12 -19 -6 -20 -20 -20 -20 -20 -20 -20 -20 -20 -20 -20 -20 -20 -20
-20 -20 -20 -20 -20 -20 -20 -20 -20 -20 -20 -18 10 -12 -2 -19 -20 -16 -20 -20 -20 -20 -19 -15 -12 -11 -4 2 1 -19 -20 -20 -20 -20 -20 -20 -20 -20 -20 -20 -20 -20 -20 -20
-20 -20 -20 -20 -20 -20 -20 -16 -20 -20 -20 -20 -11 -20 -18 -1 -20 -19 -18 -20 -20 -20 -20 -20 -20 -20 -20 -20 -20 -20 -20 -20 -20 -20 -20 -20 -20 -20 -20 -20 -20 -20 -20 -20
-20 -20 -20 -20 -20 -20 -20 -20 -11 -20 -20 -20 -20 -4 -18 -19 -16 -20 -20 -20 -20 -20 -20 -20 -20 -20 -20 -20 -20 -20 -20 -20 -20 -20 -20 -20 -20 -20 -20 -20 -20 -20 -20 -20
-20 -20 -20 -20 -20 -20 -20 -20 -20 -20 -20 -20 -20 -7 2 -7 -20 -20 -20 -20 -20 -20 -20 -20 -20 -20 -20 -20 -20 -20 -20 -20 -20 -20 -20 -20 -20 -20 -20 -20 -20 -20 -20 -20
-20 -20 -20 -20 -20 -20 -20 -20 -20 -20 -20 -20 -20 -20 3 5 10 -13 -20 -20 -20 -20 -20 -20 -20 -20 -20 -20 -20 -20 -20 -20 -20 -20 -20 -20 -20 -20 -20 -20 -20 -20 -20 -20
-20 -20 -20 -20 -20 -20 -20 -20 -20 -20 -20 -20 -20 -20 -20 -4 8 3 -18 -20 -20 -20 -20 -20 -20 -20 -20 -20 -20 -20 -20 -20 -20 -20 -20 -20 -20 -20 -20 -20 -20 -20 -20 -20
-20 -20 -20 -20 -20 -20 -20 -16 -20 -20 -20 -20 -20 -20 -20 -20 -15 9 6 -17 -20 -20 -20 -20 -20 -20 -20 -20 -20 -20 -20 -20 -20 -20 -20 -20 -20 -20 -20 -20 -20 -20 -20 -20
Wind_Speed
9 11 12 11 14 16 10 10 8 13 12 15 11 4 6 6 7 6 7 5 3 2 4 5 6 6 7 7 9 5 7 6 8 7 8 6 9 7 8 12 14 14 13 12
4 7 8 9 12 12 15 11 13 14 14 8 6 6 8 9 5 3 5 6 6 5 5 5 3 5 4 6 10 8 6 7 6 5 5 6 6 9 10 12 11 12 12 13
8 7 6 10 11 14 14 7 6 5 5 4 9 11 11 8 4 4 3 5 6 6 5 6 6 4 5 3 4 10 9 6 6 5 6 8 9 10 11 11 12 13 12 13
7 7 10 8 8 10 9 10 7 4 6 3 3 5 6 3 2 5 6 6 7 6 7 7 5 6 5 5 3 2 3 8 7 6 7 9 10 10 9 9 11 11 12 12
3 11 13 17 13 3 3 10 9 3 4 6 7 4 4 7 4 4 6 7 6 7 7 7 7 7 5 6 6 1 2 4 6 7 7 9 10 11 9 9 9 10 11 13
3 8 7 6 6 8 5 8 3 8 9 12 10 5 7 8 8 9 9 7 8 9 7 7 8 7 6 4 3 1 3 7 8 9 7 10 11 13 10 11 11 11 12 10
1 5 7 6 5 6 4 6 13 16 12 10 7 8 9 9 11 8 9 9 10 8 9 10 8 6 6 6 5 0 3 5 5 4 2 1 4 7 10 11 11 12 12 11
3 2 10 5 7 1 7 15 15 13 12 14 13 12 14 16 14 13 10 9 9 11 9 8 7 6 6 5 3 2 1 3 3 5 2 3 6 4 8 11 12 11 12 11
5 6 7 12 10 12 11 15 16 13 16 10 15 14 15 13 10 10 10 9 7 9 8 5 4 5 6 5 5 3 3 3 3 3 1 3 8 8 7 9 9 10 11 10
3 14 12 12 14 14 16 16 16 14 13 13 15 10 10 11 10 10 9 7 10 6 5 7 5 2 3 5 5 4 3 3 3 4 5 4 5 6 8 8 9 10 10 10
10 12 12 12 11 9 11 12 15 16 14 13 11 12 12 11 8 8 8 9 5 6 5 8 7 7 6 5 6 4 3 4 4 4 5 6 5 5 7 7 10 11 9 11
10 14 11 16 11 15 14 15 16 14 16 17 18 19 17 16 12 9 10 10 9 9 6 5 5 5 5 4 6 6 5 4 4 4 5 6 7 8 12 12 13 13 15 13
14 7 10 13 12 14 16 17 16 17 19 18 15 15 15 15 12 14 13 9 11 12 8 10 7 6 6 6 6 7 6 6 5 5 6 6 7 8 9 10 16 18 19 20
7 9 8 9 14 16 16 19 20 18 17 18 18 17 18 16 12 11 9 8 8 6 9 10 8 8 7 7 7 7 7 8 6 5 6 6 7 7 8 8 9 7 14 14
7 8 10 13 14 15 15 16 18 17 18 17 16 15 13 14 10 10 4 4 4 6 8 8 8 7 7 8 8 9 7 6 7 6 6 7 6 6 6 7 7 8 7 7
9 9 11 14 16 17 18 18 16 17 17 17 16 13 10 10 8 4 3 4 7 8 7 7 7 8 9 9 10 8 8 10 8 7 7 7 7 7 6 7 7 6 6 6
8 15 15 16 17 18 18 15 14 16 17 16 14 10 7 9 3 2 3 3 3 4 5 8 10 10 10 10 11 7 7 8 10 7 7 7 7 7 6 6 6 4 4 2
4 8 11 12 15 16 18 16 15 16 15 17 12 7 6 5 5 4 3 3 4 2 4 5 7 8 9 10 10 8 9 8 8 7 7 7 7 7 6 7 6 6 2 2
7 8 10 11 13 14 14 14 14 14 14 12 12 8 6 4 2 3 4 4 5 5 4 4 6 8 10 10 10 8 8 8 8 7 7 9 7 7 7 7 6 5 5 5
8 8 9 10 12 12 14 13 15 13 12 12 10 9 6 3 1 2 3 4 4 2 6 5 7 7 8 10 11 7 9 8 9 7 7 7 7 7 7 7 8 7 7 7
8 10 10 9 11 12 11 10 13 14 13 12 11 10 8 3 2 3 4 3 2 4 6 7 6 6 7 9 8 8 8 8 8 8 8 7 7 7 7 7 8 7 6 6
7 8 10 9 9 9 12 10 8 13 13 11 10 7 5 3 0 2 1 2 2 5 4 4 5 8 7 9 7 8 8 8 6 6 6 7 7 7 7 7 7 6 6 5
6 6 7 7 9 10 11 10 8 10 13 12 10 8 4 2 2 1 0 1 3 4 4 5 6 8 9 5 6 7 7 7 7 6 6 6 6 6 6 7 6 6 5 5
4 5 5 6 6 5 10 12 8 8 9 12 9 7 5 2 2 1 1 4 5 5 3 4 6 8 6 4 5 6 6 6 6 6 6 7 5 5 5 5 5 5 5 5
6 5 4 4 4 4 5 9 9 10 12 11 11 9 7 3 3 2 2 3 5 4 4 6 8 8 4 4 5 6 6 6 7 7 7 6 6 6 5 5 5 6 5 6
3 3 4 5 5 4 3 3 7 9 10 11 11 8 9 5 3 3 4 4 5 6 3 3 5 6 5 6 6 6 7 6 7 7 7 7 6 6 6 6 6 6 6 5
5 3 3 4 3 3 2 2 5 7 7 9 12 11 8 8 4 3 5 5 5 5 4 3 4 6 6 6 6 6 6 6 7 7 6 6 6 6 7 7 7 7 6 7
Wind_Direction
260 277 296 302 291 293 281 259 257 282 279 280 299 344 292 285 334 16 356 6 281 255 284 323 314 18 352 342 305 263 204 191 230 209 206 171 162 171 176 173 174 172 168 167
274 277 274 283 279 286 282 279 266 268 294 13 321 315 326 318 308 69 23 10 0 335 304 284 329 4 6 4 349 332 290 245 221 212 184 168 164 159 164 166 167 160 164 163
258 252 276 277 250 254 253 246 270 294 217 290 337 340 317 309 354 6 330 321 326 321 319 315 323 323 317 318 30 359 320 302 274 201 189 175 164 166 170 166 159 160 159 158
269 284 250 263 245 264 292 288 291 277 271 303 299 292 330 154 122 337 316 303 307 302 303 303 276 291 290 271 256 70 359 318 307 248 199 182 168 168 158 155 159 156 155 152
236 260 277 294 283 283 276 297 276 308 358 310 302 299 268 245 268 261 277 282 264 276 282 288 287 282 271 280 293 97 1 279 310 329 204 176 172 156 151 146 154 158 156 150
227 272 271 272 317 319 299 276 51 349 320 307 301 286 261 259 236 259 262 267 280 284 284 281 277 256 259 130 161 230 285 298 314 304 204 181 176 172 175 164 156 148 146 150
258 248 259 252 326 310 243 258 318 309 287 288 260 217 247 276 275 236 240 254 270 275 267 268 272 257 183 183 196 256 321 301 288 336 313 120 153 161 161 153 149 151 146 146
203 176 283 182 338 249 263 289 283 276 268 274 253 265 269 269 267 266 255 263 260 272 264 268 260 173 179 200 159 190 206 273 1 12 2 105 125 123 148 146 147 144 141 136
195 230 263 285 271 275 262 265 277 270 278 246 266 273 268 268 257 257 257 259 254 246 264 277 263 205 184 177 167 175 199 188 170 155 84 136 143 144 139 147 143 141 142 135
322 254 270 276 282 278 276 276 280 275 273 275 277 271 262 262 260 264 257 262 273 258 269 237 213 159 161 179 176 185 169 156 119 114 104 102 114 135 141 140 139 137 131 136
265 286 277 269 269 296 311 302 295 290 277 277 287 286 282 272 263 269 271 285 227 233 243 247 197 193 170 194 152 160 153 123 112 110 117 109 93 118 137 137 148 149 149 146
268 283 277 300 318 306 300 302 300 302 299 291 287 281 281 274 265 269 267 272 239 246 240 176 193 188 161 179 171 153 137 133 127 121 111 107 103 92 85 108 121 127 131 134
288 335 304 295 293 297 302 301 300 293 293 294 292 291 286 281 278 279 262 258 251 239 171 177 163 189 181 168 156 159 146 138 120 118 115 118 114 117 116 102 113 123 129 133
346 312 291 305 306 308 311 307 303 298 293 289 285 285 276 268 271 263 247 244 241 221 162 166 155 197 167 160 148 136 138 129 122 121 118 117 118 118 120 125 128 128 130 135
325 309 298 304 310 308 312 311 306 300 303 300 294 281 269 277 264 266 230 222 112 117 147 142 168 180 157 157 150 138 138 130 124 117 111 109 105 103 114 121 130 133 135 127
314 325 325 325 321 320 321 317 313 309 309 303 296 280 268 269 269 261 194 147 151 171 167 162 186 173 164 159 148 145 149 135 131 128 128 118 113 114 114 116 123 127 131 134
333 334 329 327 327 323 322 316 315 310 311 309 312 300 274 284 221 164 149 159 178 184 178 184 193 170 161 160 153 150 145 142 138 132 134 133 131 131 128 126 124 115 131 151
322 308 311 312 316 322 323 324 319 317 319 320 315 303 292 232 222 199 179 164 138 141 165 181 177 171 166 156 160 145 152 145 142 142 137 138 135 134 134 128 127 136 131 112
327 305 311 319 317 318 320 321 322 321 319 323 324 321 303 283 185 170 154 170 176 177 185 158 159 159 167 154 145 145 146 142 137 138 141 134 133 136 140 143 145 145 152 153
314 302 298 312 322 325 327 328 330 325 324 323 322 319 307 292 232 182 185 212 205 177 152 159 167 159 154 146 141 138 138 137 138 138 141 143 146 149 148 148 154 159 165 174
300 299 299 306 314 314 321 330 332 333 326 327 327 326 304 269 216 194 173 169 191 157 155 162 165 152 143 142 137 138 138 141 145 149 151 149 147 152 154 157 161 166 167 165
299 298 302 300 304 304 315 322 321 337 335 328 329 322 334 332 20 42 21 179 158 155 151 147 149 146 143 136 137 137 138 140 140 140 143 150 152 155 158 159 160 161 164 165
284 283 297 300 307 306 311 318 327 330 338 334 326 322 304 260 221 122 241 171 153 166 156 150 147 136 133 123 135 139 143 148 152 153 155 156 156 155 156 160 160 158 157 161
275 284 269 283 298 317 331 331 321 319 320 330 321 315 306 296 284 287 190 148 165 160 149 157 156 147 135 130 137 143 146 148 151 156 156 152 153 147 153 153 153 157 145 141
268 277 273 304 311 302 308 327 331 340 339 335 334 331 305 266 245 241 174 171 175 170 176 175 164 159 147 149 158 160 160 163 163 163 164 160 158 161 157 151 150 152 146 147
269 281 272 282 277 284 297 326 344 337 337 333 329 329 327 296 280 210 181 174 181 179 177 178 180 180 169 170 167 165 165 162 162 167 163 161 162 159 152 147 142 143 143 138
281 273 293 308 301 301 303 317 340 333 326 324 322 319 312 314 265 215 188 175 179 182 180 177 183 184 177 170 174 172 172 172 169 163 167 157 156 151 150 149 142 137 131 135